Regional Weather Roundup
Issued by NWS Midland/Odessa, TX

Skip options and go directly to product.
Home | Oldest Version | Previous Version | Current Version | All | Text Only | Save Text | Print | Product List | Glossary Off

Skip product version selection by date and time.   

566
ASUS44 KMAF 010710
RWRMAF
MIDLAND AREA WEATHER ROUNDUP
NATIONAL WEATHER SERVICE MIDLAND TX
100 AM CST SUN FEB 01 2015

...IN SOUTHWEST TEXAS AND SOUTHEAST NEW MEXICO...

CITY           SKY/WX    TMP DP  RH WIND       PRES   REMARKS
ALPINE         PTCLDY    45  39  79 S8        30.00R
ANDREWS        FOG       48  48 100 SW10      29.89S VSB 1
ARTESIA        FOG       43  43 100 N5        29.91R VSB 1/4
BIG SPRING     CLOUDY    54  52  94 S9        29.91S
CARLSBAD       MOCLDY    43  42  97 CALM      29.87F
DRYDEN           N/A     52  52 100 W7        29.91R
FORT STOCKTON  CLEAR     48  45  89 SW10      29.90S
GUAD PASS      FOG       40  39  97 SW16      29.93F VSB 1/4 WCI  31
HOBBS          FOG       43  43 100 SW8       29.89F VSB 1/4 WCI  38
MARFA          CLEAR     36  34  93 NW5       29.97S WCI  32
MIDLAND AIRPK  FOG       50  50 100 SW7       29.90R VSB 1
MIDLAND INTL   FOG       49  48  97 SW7       29.89R VSB 1/4
ODESSA         FOG       48  47  96 SW8       29.90R VSB 1/4
PECOS          FOG       40  39  97 SW6       29.91S VSB 1/4 WCI  36
PRESIDIO       FAIR      51  46  84 N8        29.92S
SEMINOLE       FOG       48  48 100 SW9       29.89F VSB 3/4
SNYDER         MOCLDY   N/A N/A N/A SW6       29.87F FOG
WINK           FOG       46  43  89 SW5       29.89S VSB 1/4
$$
...OTHER STATIONS IN TEXAS...

CITY           SKY/WX    TMP DP  RH WIND       PRES   REMARKS
ABILENE        PTCLDY    54  52  93 S12       29.86F
AMARILLO       CLOUDY    43  40  89 W10       29.84S WCI  37
AUSTIN         CLOUDY    62  61  96 S9        29.92S
BROWNSVILLE    LGT RAIN  66  62  87 SE14      29.93F
CORPUS CHRISTI MOCLDY    65  61  87 S15       29.91S
DALLAS FTW     LGT RAIN  54  53  97 SW10      29.87S
DEL RIO        CLOUDY    58  55  90 N6        29.92F
EL PASO        MOCLDY    51  41  68 SW6       29.92S
HOUSTON INT    CLOUDY    61  60  97 SE13      29.93F FOG
LUBBOCK        CLOUDY    46  45  96 SW10      29.84S
SAN ANGELO     PTCLDY    55  53  93 S8        29.88F
SAN ANTONIO    CLOUDY    62  60  93 S7        29.92F
WACO           CLOUDY    58  57  97 S14       29.90S FOG
WICHITA FALLS  NOT AVBL
$$
...OTHER LOCATIONS IN NEW MEXICO...

CITY           SKY/WX    TMP DP  RH WIND       PRES   REMARKS
ALAMAGORDO     CLOUDY    45  45 100 SE3       29.94S
ALBUQUERQUE    MOCLDY    39  32  76 N14G21    29.98S WCI  31
CANNON AFB     NOT AVBL
CLOVIS         CLEAR     37  36  93 W10       29.84S WCI  30
HOLLOMAN AFB   CLOUDY    43  43 100 CALM      29.92R
ROSWELL        CLOUDY    43  42  97 S6        29.89S FOG     WCI  39
RUIDOSO        CLOUDY    39  34  81 NW8       29.95R WCI  34
SANTA FE       CLOUDY    31  30  96 W5        29.95R FOG     WCI  26
TRUTH OR CONSE MOCLDY    42  42 100 NE5       29.94R WCI  39
TUCUMCARI      FOG       34  33  96 N6        29.86R VSB 1   WCI  29
$$

USA.gov is the U.S. government's official web portal to all federal, state and local government web resources and services.